contact:dominique.lefevre@mio.osupytheas.fr, maurice.libes@osupytheas.fr
Project:EMSO Ligure-ouest http://www.emso-fr.org/EMSO-France
Sensor Aquadopp, line 13 Serial AQD14315 
DOI : "https://doi.org/10.17882/74513; https://doi.org/10.17882/83244" 
Title:EMSO Ligure Ouest : Data ligne ALBATROSS capteur AQUADOPP - deploiement 2021
Id,Date,Profondeur,Latitude,Longitude,X_East,Y_North,Z_Up,Amplitude_X,Amplitude_Y,Amplitude_Z,Batterie,SoundSpeed,Heading,Pitch,Roll,Pressure,Temperature,Speed,Direction
, , m, degrees North, degrees East, m.s-1, m.s-1,m.s-1, 1, 1, 1, Volt, m.s-1, degree, degree, degree, dbar, degree_C, m.s-1, degree
11,2022-03-16T22:00:00,2200.0,42.79,6.0312,-0.011,0.01,-0.003,64.0,68.0,67.0,12.2,1504.3,152.7,0.0,0.1,2192.704,13.18,0.014,312.3
11,2022-03-16T22:30:00,2200.0,42.79,6.0312,0.003,0.019,0.0,63.0,69.0,70.0,12.2,1504.3,144.0,-0.4,0.1,2192.724,13.18,0.019,9.0
11,2022-03-16T23:00:00,2200.0,42.79,6.0312,0.006,0.031,0.001,67.0,70.0,70.0,12.2,1504.3,149.7,0.0,0.0,2192.707,13.18,0.031,11.0
11,2022-03-16T23:30:00,2200.0,42.79,6.0312,0.009,-0.003,-0.015,65.0,67.0,69.0,12.2,1504.3,158.2,-0.2,-0.2,2192.64,13.18,0.009,108.4
11,2022-03-17T00:00:00,2200.0,42.79,6.0312,0.015,0.002,0.012,63.0,70.0,71.0,12.2,1504.3,152.4,-0.4,-0.2,2192.647,13.18,0.015,82.4
11,2022-03-17T00:30:00,2200.0,42.79,6.0312,0.007,0.003,-0.009,66.0,69.0,67.0,12.2,1504.3,146.3,-0.2,0.2,2192.67,13.18,0.007,66.8
11,2022-03-17T01:00:00,2200.0,42.79,6.0312,0.011,-0.001,-0.001,65.0,66.0,69.0,12.2,1504.3,145.6,0.0,0.0,2192.664,13.18,0.011,95.2
11,2022-03-17T01:30:00,2200.0,42.79,6.0312,0.018,-0.001,-0.003,65.0,67.0,70.0,12.2,1504.3,138.3,-0.2,0.0,2192.676,13.18,0.018,93.2
11,2022-03-17T02:00:00,2200.0,42.79,6.0312,0.021,-0.015,0.003,65.0,70.0,71.0,12.2,1504.3,136.4,-0.3,-0.1,2192.642,13.18,0.025,125.5
11,2022-03-17T02:30:00,2200.0,42.79,6.0312,0.02,-0.002,0.006,66.0,67.0,71.0,12.2,1504.3,139.2,0.0,-0.2,2192.721,13.18,0.02,95.7
11,2022-03-17T03:00:00,2200.0,42.79,6.0312,0.02,-0.007,0.015,65.0,67.0,70.0,12.2,1504.3,140.5,0.0,-0.2,2192.724,13.18,0.021,109.3
11,2022-03-17T03:30:00,2200.0,42.79,6.0312,0.036,-0.007,-0.007,65.0,67.0,70.0,12.2,1504.3,144.3,-0.4,-0.2,2192.706,13.18,0.036,101.0
11,2022-03-17T04:00:00,2200.0,42.79,6.0312,0.022,-0.001,-0.015,65.0,70.0,70.0,12.2,1504.3,144.9,-0.4,-0.1,2192.786,13.18,0.022,92.6
11,2022-03-17T04:30:00,2200.0,42.79,6.0312,0.022,-0.012,-0.004,63.0,69.0,68.0,12.2,1504.3,145.2,-0.1,0.1,2192.806,13.18,0.025,118.6
11,2022-03-17T05:00:00,2200.0,42.79,6.0312,0.014,-0.017,0.009,66.0,67.0,71.0,12.2,1504.3,150.1,0.0,0.2,2192.827,13.18,0.022,140.5
11,2022-03-17T05:30:00,2200.0,42.79,6.0312,-0.004,-0.009,-0.01,66.0,69.0,69.0,12.2,1504.3,159.9,0.0,0.1,2192.864,13.18,0.009,204.0
11,2022-03-17T06:00:00,2200.0,42.79,6.0312,0.001,-0.033,0.001,66.0,69.0,68.0,12.1,1504.3,172.6,0.0,-0.2,2192.884,13.18,0.033,178.3
11,2022-03-17T06:30:00,2200.0,42.79,6.0312,-0.003,-0.009,0.015,64.0,66.0,71.0,12.1,1504.3,175.5,0.0,0.0,2192.899,13.18,0.009,198.4
11,2022-03-17T07:00:00,2200.0,42.79,6.0312,-0.009,-0.013,0.003,65.0,69.0,71.0,12.2,1504.3,161.4,-0.2,0.0,2192.91,13.18,0.015,214.7
11,2022-03-17T07:30:00,2200.0,42.79,6.0312,-0.006,-0.012,0.009,67.0,69.0,68.0,12.2,1504.3,169.6,-0.1,0.1,2192.898,13.18,0.013,206.6
11,2022-03-17T08:00:00,2200.0,42.79,6.0312,-0.008,-0.017,0.014,64.0,67.0,69.0,12.2,1504.3,156.0,-0.2,0.1,2192.9,13.18,0.018,205.2
11,2022-03-17T08:30:00,2200.0,42.79,6.0312,-0.021,-0.005,0.008,63.0,68.0,69.0,12.2,1504.3,171.4,-0.5,0.2,2192.901,13.18,0.021,256.6
11,2022-03-17T09:00:00,2200.0,42.79,6.0312,-0.026,-0.013,0.002,66.0,67.0,69.0,12.2,1504.3,183.6,-0.5,0.0,2192.88,13.18,0.029,243.4
11,2022-03-17T09:30:00,2200.0,42.79,6.0312,-0.017,-0.009,0.001,66.0,69.0,69.0,12.2,1504.3,183.1,-0.2,0.2,2192.829,13.18,0.019,242.1
11,2022-03-17T10:00:00,2200.0,42.79,6.0312,-0.027,-0.013,-0.001,66.0,67.0,70.0,12.2,1504.3,191.8,-0.1,-0.1,2192.842,13.18,0.029,244.3
11,2022-03-17T10:30:00,2200.0,42.79,6.0312,-0.038,-0.01,-0.006,65.0,69.0,69.0,12.2,1504.3,206.6,-0.5,0.2,2192.844,13.18,0.039,255.3
11,2022-03-17T11:00:00,2200.0,42.79,6.0312,-0.021,-0.006,0.007,63.0,68.0,69.0,12.2,1504.3,181.6,-0.3,-0.2,2192.781,13.18,0.021,254.1
11,2022-03-17T11:30:00,2200.0,42.79,6.0312,-0.024,0.006,0.017,63.0,67.0,68.0,12.2,1504.3,186.4,0.2,0.0,2192.77,13.18,0.024,284.0
11,2022-03-17T12:00:00,2200.0,42.79,6.0312,-0.028,0.003,0.001,64.0,67.0,69.0,12.2,1504.3,206.9,-0.2,0.1,2192.793,13.18,0.028,276.1
11,2022-03-17T12:30:00,2200.0,42.79,6.0312,-0.035,-0.002,0.018,65.0,67.0,68.0,12.2,1504.3,184.5,-0.4,0.1,2192.741,13.18,0.035,266.7
11,2022-03-17T13:00:00,2200.0,42.79,6.0312,-0.037,0.004,0.006,64.0,66.0,69.0,12.2,1504.3,197.5,-0.2,0.0,2192.695,13.18,0.037,276.2
11,2022-03-17T13:30:00,2200.0,42.79,6.0312,-0.032,-0.005,0.003,65.0,66.0,69.0,12.2,1504.3,169.7,-0.3,0.1,2192.708,13.18,0.032,261.1
11,2022-03-17T14:00:00,2200.0,42.79,6.0312,-0.018,0.015,0.0,64.0,67.0,68.0,12.2,1504.3,190.4,-0.3,0.1,2192.726,13.18,0.023,309.8
11,2022-03-17T14:30:00,2200.0,42.79,6.0312,-0.027,0.005,0.009,62.0,69.0,68.0,12.2,1504.3,178.0,-0.3,0.2,2192.646,13.18,0.027,280.5
11,2022-03-17T15:00:00,2200.0,42.79,6.0312,-0.027,0.019,0.019,63.0,71.0,68.0,12.2,1504.3,181.0,-0.2,0.0,2192.713,13.18,0.033,305.1
11,2022-03-17T15:30:00,2200.0,42.79,6.0312,-0.027,0.021,-0.003,64.0,66.0,68.0,12.2,1504.3,194.9,-0.4,0.0,2192.731,13.18,0.034,307.9
11,2022-03-17T16:00:00,2200.0,42.79,6.0312,-0.022,0.015,0.01,64.0,65.0,68.0,12.2,1504.3,190.0,-0.4,0.2,2192.746,13.18,0.026,304.3
11,2022-03-17T16:30:00,2200.0,42.79,6.0312,-0.034,0.011,-0.013,62.0,63.0,69.0,12.2,1504.3,179.8,0.1,-0.2,2192.789,13.18,0.035,287.9
11,2022-03-17T17:00:00,2200.0,42.79,6.0312,-0.023,0.008,0.003,63.0,67.0,71.0,12.2,1504.3,205.3,-0.2,-0.2,2192.827,13.18,0.024,289.2
11,2022-03-17T17:30:00,2200.0,42.79,6.0312,-0.007,0.007,-0.013,64.0,68.0,67.0,12.2,1504.3,205.5,-0.2,0.1,2192.851,13.17,0.009,315.0
11,2022-03-17T18:00:00,2200.0,42.79,6.0312,-0.017,0.022,-0.001,64.0,67.0,69.0,12.2,1504.3,191.4,0.1,0.1,2192.845,13.18,0.027,322.3
11,2022-03-17T18:30:00,2200.0,42.79,6.0312,-0.01,0.01,-0.008,65.0,67.0,72.0,12.2,1504.3,197.3,-0.1,0.0,2192.838,13.18,0.014,315.0
11,2022-03-17T19:00:00,2200.0,42.79,6.0312,-0.011,-0.004,0.013,65.0,67.0,67.0,12.2,1504.3,194.2,-0.3,0.1,2192.904,13.18,0.011,250.0
11,2022-03-17T19:30:00,2200.0,42.79,6.0312,-0.004,-0.016,0.011,64.0,68.0,68.0,12.1,1504.3,194.0,-0.2,-0.2,2192.88,13.18,0.016,194.0
11,2022-03-17T20:00:00,2200.0,42.79,6.0312,-0.01,0.003,0.008,65.0,69.0,69.0,12.2,1504.3,187.1,-0.4,-0.1,2192.87,13.18,0.01,286.7
11,2022-03-17T20:30:00,2200.0,42.79,6.0312,-0.012,-0.003,0.009,68.0,68.0,67.0,12.2,1504.3,188.9,-0.4,0.2,2192.859,13.18,0.012,256.0
11,2022-03-17T21:00:00,2200.0,42.79,6.0312,-0.04,-0.004,0.0,66.0,67.0,68.0,12.2,1504.3,201.7,-0.3,-0.2,2192.854,13.18,0.04,264.3
